Regional Weather Roundup
Issued by NWS

Home | Current Version | Previous Version | Graphics & Text | Print | Product List | Glossary On
Versions: 1 2 3 4 5 6 7 8 9 10 11 12 13 14 15 16 17 18 19 20 21 22 23 24 25 26 27 28 29 30 31 32 33 34 35 36 37 38 39 40 41 42 43 44 45 46 47 48 49 50
000
ASUS43 KOAX 180802
RWRNE

WEATHER ROUNDUP FOR NEBRASKA
NATIONAL WEATHER SERVICE OMAHA NE
300 AM CDT FRI APR 18 2014

NOTES: SATELLITE DATA IS BEING USED TO AUGMENT CLOUD COVER ABOVE
       12000 FEET.
       "FAIR" INDICATES FEW OR NO CLOUDS BELOW 12,000 FEET WITH NO
       SIGNIFICANT WEATHER AND/OR OBSTRUCTIONS TO VISIBILITY.

  * THESE STATIONS DO NOT REPORT WEATHER SUCH AS RAIN...SNOW OR FOG.

NEZ001>004-019>022-054>056-180900-
NEBRASKA PANHANDLE

CITY           SKY/WX    TMP DP  RH WIND       PRES   REMARKS
SCOTTSBLUFF    CLEAR     52  35  52 SW7G21    29.94S
ALLIANCE       CLEAR     40  36  86 S13       29.94F WCI  32
CHADRON        CLEAR     47  37  68 SW12      29.88S
KIMBALL        PTCLDY    41  34  75 S8        29.97F
SIDNEY         CLEAR     41  35  79 S16       30.00F
$$

NEZ057>060-069>072-079>082-180900-
SOUTHWEST NEBRASKA

CITY           SKY/WX    TMP DP  RH WIND       PRES   REMARKS
NORTH PLATTE   CLEAR     43  37  79 S13       30.10F
IMPERIAL       CLEAR     41  37  86 S12       30.08F
LEXINGTON      CLEAR     38  32  77 S7        30.15F WCI  33
MCCOOK         CLEAR     40  37  89 S8        30.14F WCI  34
OGALLALA       CLEAR     40  36  85 CALM      30.05S
$$

NEZ005>010-023>029-035>040-094-180900-
NORTH CENTRAL NEBRASKA

CITY           SKY/WX    TMP DP  RH WIND       PRES   REMARKS
VALENTINE      CLEAR     43  31  62 S15       30.03F
AINSWORTH      CLEAR     41  30  64 S16G24    30.06F
BROKEN BOW     CLEAR     38  30  73 S9        30.13F WCI  31
O`NEILL        CLEAR     38  25  58 S10       30.14F WCI  31
ORD            CLEAR     34  27  75 E3        30.16F
THEDFORD       CLEAR     44  34  67 S14G20    30.07F
$$

NEZ041-046>049-061>064-073>077-083>087-180900-
SOUTH CENTRAL NEBRASKA

CITY           SKY/WX    TMP DP  RH WIND       PRES   REMARKS
GRAND ISLAND   CLEAR     39  28  64 S10       30.20F WCI  32
AURORA         CLEAR     38  29  71 S7        30.20F WCI  32
HASTINGS       CLEAR     40  27  59 S9        30.19F WCI  34
HEBRON         CLEAR     37  29  73 S6        30.23F WCI  32
HOLDREGE       CLEAR     37  30  73 S9        30.16F WCI  31
KEARNEY *      CLEAR     37  28  70 S10       30.17F WCI  30
YORK           CLEAR     37  27  65 S7        30.22S WCI  32
$$

NEZ011>018-030>034-042>045-180900-
NORTHEAST NEBRASKA

CITY           SKY/WX    TMP DP  RH WIND       PRES   REMARKS
NORFOLK        MOCLDY    38  26  62 S9        30.20F WCI  31
ALBION         CLEAR     33  25  73 SE5       30.19F WCI  28
BLAIR          CLEAR     40  25  56 S3        30.24S
COLUMBUS *     CLEAR     36  25  64 SE7       30.22F WCI  30
FREMONT        CLEAR     39  28  66 CALM      30.24F
TEKAMAH        CLEAR     30  22  72 CALM      30.25F
$$

NEZ050>053-065>068-078-088>093-180900-
SOUTHEAST NEBRASKA

CITY           SKY/WX    TMP DP  RH WIND       PRES   REMARKS
LINCOLN        CLEAR     38  26  62 CALM      30.26S
OMAHA EPPLEY   PTCLDY    33  27  78 CALM      30.26S
BEATRICE       FAIR      38  31  75 S7        30.25S HAZE    WCI  33
FALLS CITY     CLEAR     33  28  81 CALM      30.27S
NEBRASKA CITY  CLEAR     36  27  71 S6        30.26S WCI  31
PLATTSMOUTH    CLEAR     38  26  61 S7        30.25S WCI  33
$$

NEZ044-045-051>053-067-180900-
OMAHA AREA

CITY           SKY/WX    TMP DP  RH WIND       PRES   REMARKS
OMAHA EPPLEY   PTCLDY    33  27  78 CALM      30.26S
BLAIR          CLEAR     40  25  56 S3        30.24S
FREMONT        CLEAR     39  28  66 CALM      30.24F
MILLARD        CLEAR     35  28  75 CALM      30.25F
OFFUTT AFB     CLEAR     31  30  98 CALM      30.25S
PLATTSMOUTH    CLEAR     38  26  61 S7        30.25S WCI  33
WAHOO          FAIR      33  24  70 CALM      30.24S
$$



USA.gov is the U.S. government's official web portal to all federal, state and local government web resources and services.